| time (UTC) | temp F | wind direction | speed MPH | gust MPH | rain 1hr in | rain 24hr in | rain mn in | humidity % | barometer mb |
| 20260504035004 | 55 | 199 | 3.0 | 8.0 | 0.00 | 0.00 | 0.00 | 60 | 1009.9 |
| 20260504034503 | 55 | 198 | 4.0 | 8.0 | 0.00 | 0.00 | 0.00 | 60 | 1009.9 |
| 20260504034003 | 55 | 192 | 4.0 | 9.0 | 0.00 | 0.00 | 0.00 | 60 | 1010.0 |
| 20260504033504 | 55 | 189 | 4.0 | 9.0 | 0.00 | 0.00 | 0.00 | 60 | 1010.0 |
| 20260504033003 | 55 | 201 | 4.0 | 9.0 | 0.00 | 0.00 | 0.00 | 59 | 1010.0 |
| 20260504032504 | 55 | 200 | 5.0 | 9.0 | 0.00 | 0.00 | 0.00 | 59 | 1010.0 |
| 20260504032003 | 55 | 193 | 4.0 | 11.0 | 0.00 | 0.00 | 0.00 | 59 | 1010.0 |
| 20260504031503 | 56 | 201 | 4.0 | 11.0 | 0.00 | 0.00 | 0.00 | 58 | 1010.0 |
| 20260504031004 | 56 | 204 | 4.0 | 10.0 | 0.00 | 0.00 | 0.00 | 58 | 1010.1 |
| 20260504030503 | 56 | 203 | 4.0 | 10.0 | 0.00 | 0.00 | 0.00 | 57 | 1010.1 |
| 20260504030005 | 56 | 207 | 4.0 | 8.0 | 0.00 | 0.00 | 0.00 | 57 | 1010.1 |
| 20260504025504 | 56 | 213 | 4.0 | 8.0 | 0.00 | 0.00 | 0.00 | 57 | 1010.1 |
| 20260504025005 | 56 | 215 | 4.0 | 8.0 | 0.00 | 0.00 | 0.00 | 57 | 1010.1 |
| 20260504024503 | 56 | 208 | 4.0 | 8.0 | 0.00 | 0.00 | 0.00 | 57 | 1010.2 |
| 20260504024003 | 56 | 199 | 3.0 | 7.0 | 0.00 | 0.00 | 0.00 | 56 | 1010.1 |
| 20260504023503 | 56 | 199 | 3.0 | 9.0 | 0.00 | 0.00 | 0.00 | 56 | 1010.1 |
| 20260504023005 | 56 | 200 | 4.0 | 9.0 | 0.00 | 0.00 | 0.00 | 56 | 1010.1 |
| 20260504022504 | 57 | 205 | 4.0 | 9.0 | 0.00 | 0.00 | 0.00 | 56 | 1010.0 |
| 20260504022003 | 57 | 202 | 4.0 | 10.0 | 0.00 | 0.00 | 0.00 | 55 | 1010.0 |
| 20260504021503 | 57 | 200 | 4.0 | 10.0 | 0.00 | 0.00 | 0.00 | 55 | 1010.0 |
| 20260504021004 | 57 | 199 | 4.0 | 10.0 | 0.00 | 0.00 | 0.00 | 55 | 1010.0 |
| 20260504020504 | 57 | 196 | 4.0 | 9.0 | 0.00 | 0.00 | 0.00 | 54 | 1010.0 |
| 20260504020003 | 58 | 203 | 3.0 | 9.0 | 0.00 | 0.00 | 0.00 | 54 | 1010.0 |
| 20260504015503 | 58 | 208 | 3.0 | 6.0 | 0.00 | 0.00 | 0.00 | 53 | 1010.0 |
| 20260504015003 | 58 | 207 | 3.0 | 8.0 | 0.00 | 0.00 | 0.00 | 53 | 1010.0 |
| 20260504014504 | 58 | 205 | 4.0 | 8.0 | 0.00 | 0.00 | 0.00 | 53 | 1009.9 |
| 20260504014003 | 58 | 205 | 3.0 | 8.0 | 0.00 | 0.00 | 0.00 | 53 | 1010.0 |
| 20260504013503 | 58 | 209 | 3.0 | 9.0 | 0.00 | 0.00 | 0.00 | 53 | 1010.0 |
| 20260504013003 | 58 | 214 | 4.0 | 9.0 | 0.00 | 0.00 | 0.00 | 52 | 1010.0 |
| 20260504012505 | 59 | 226 | 3.0 | 10.0 | 0.00 | 0.00 | 0.00 | 52 | 1010.1 |
| 20260504012003 | 59 | 215 | 3.0 | 10.0 | 0.00 | 0.00 | 0.00 | 52 | 1010.1 |
| 20260504011504 | 59 | 200 | 4.0 | 9.0 | 0.00 | 0.00 | 0.00 | 52 | 1010.0 |
| 20260504011003 | 59 | 201 | 4.0 | 9.0 | 0.00 | 0.00 | 0.00 | 52 | 1010.0 |
| 20260504010504 | 59 | 206 | 3.0 | 9.0 | 0.00 | 0.00 | 0.00 | 52 | 1010.0 |
| 20260504010004 | 59 | 217 | 3.0 | 9.0 | 0.00 | 0.00 | 0.00 | 52 | 1010.1 |
| 20260504005503 | 59 | 219 | 3.0 | 9.0 | 0.00 | 0.00 | 0.00 | 52 | 1010.1 |
| 20260504005004 | 59 | 217 | 3.0 | 9.0 | 0.00 | 0.00 | 0.00 | 51 | 1010.2 |
| 20260504004503 | 60 | 219 | 3.0 | 7.0 | 0.00 | 0.00 | 0.00 | 50 | 1010.2 |
| 20260504004003 | 60 | 219 | 3.0 | 10.0 | 0.00 | 0.00 | 0.00 | 50 | 1010.3 |
| 20260504003504 | 60 | 219 | 3.0 | 10.0 | 0.00 | 0.00 | 0.00 | 50 | 1010.2 |
| 20260504003003 | 60 | 215 | 4.0 | 11.0 | 0.00 | 0.00 | 0.00 | 49 | 1010.2 |
| 20260504002503 | 60 | 209 | 4.0 | 11.0 | 0.00 | 0.00 | 0.00 | 49 | 1010.1 |
| 20260504002004 | 60 | 220 | 4.0 | 10.0 | 0.00 | 0.00 | 0.00 | 50 | 1010.2 |
| 20260504001503 | 60 | 222 | 5.0 | 11.0 | 0.00 | 0.00 | 0.00 | 49 | 1010.1 |
| 20260504001003 | 60 | 220 | 5.0 | 11.0 | 0.00 | 0.00 | 0.00 | 49 | 1010.2 |
| 20260504000504 | 60 | 217 | 5.0 | 12.0 | 0.00 | 0.00 | 0.00 | 48 | 1010.2 |
| 20260504000004 | 60 | 202 | 5.0 | 12.0 | 0.00 | 0.00 | 0.00 | 48 | 1010.1 |
| 20260503235504 | 60 | 209 | 5.0 | 14.0 | 0.00 | 0.00 | 0.00 | 48 | 1010.2 |
| 20260503235003 | 60 | 213 | 6.0 | 15.0 | 0.00 | 0.00 | 0.00 | 47 | 1010.2 |
| 20260503234505 | 60 | 214 | 5.0 | 15.0 | 0.00 | 0.00 | 0.00 | 47 | 1010.2 |
| 20260503234004 | 60 | 213 | 4.0 | 12.0 | 0.00 | 0.00 | 0.00 | 46 | 1010.3 |
| 20260503233503 | 60 | 216 | 5.0 | 12.0 | 0.00 | 0.00 | 0.00 | 47 | 1010.5 |
| 20260503233003 | 60 | 220 | 4.0 | 11.0 | 0.00 | 0.00 | 0.00 | 46 | 1010.5 |
| 20260503232504 | 61 | 214 | 6.0 | 14.0 | 0.00 | 0.00 | 0.00 | 46 | 1010.5 |
| 20260503232003 | 61 | 213 | 7.0 | 14.0 | 0.00 | 0.00 | 0.00 | 45 | 1010.6 |
| 20260503231504 | 61 | 217 | 7.0 | 15.0 | 0.00 | 0.00 | 0.00 | 45 | 1010.6 |
| 20260503231003 | 61 | 215 | 7.0 | 15.0 | 0.00 | 0.00 | 0.00 | 44 | 1010.6 |
| 20260503230505 | 61 | 223 | 6.0 | 15.0 | 0.00 | 0.00 | 0.00 | 45 | 1010.9 |
| 20260503230003 | 61 | 221 | 6.0 | 14.0 | 0.00 | 0.00 | 0.00 | 45 | 1010.8 |
| 20260503225505 | 61 | 208 | 6.0 | 14.0 | 0.00 | 0.00 | 0.00 | 44 | 1010.7 |
| 20260503225003 | 61 | 206 | 5.0 | 13.0 | 0.00 | 0.00 | 0.00 | 45 | 1010.7 |
| 20260503224503 | 61 | 207 | 6.0 | 19.0 | 0.00 | 0.00 | 0.00 | 44 | 1010.7 |
| 20260503224004 | 62 | 221 | 7.0 | 19.0 | 0.00 | 0.00 | 0.00 | 43 | 1010.8 |
| 20260503223503 | 62 | 237 | 7.0 | 16.0 | 0.00 | 0.00 | 0.00 | 44 | 1010.8 |
| 20260503223003 | 62 | 232 | 7.0 | 17.0 | 0.00 | 0.00 | 0.00 | 43 | 1010.8 |
| 20260503222504 | 62 | 221 | 5.0 | 17.0 | 0.00 | 0.00 | 0.00 | 43 | 1010.7 |
| 20260503222004 | 62 | 209 | 6.0 | 15.0 | 0.00 | 0.00 | 0.00 | 43 | 1010.5 |
| 20260503221503 | 62 | 200 | 6.0 | 16.0 | 0.00 | 0.00 | 0.00 | 43 | 1010.5 |
| 20260503221003 | 62 | 206 | 6.0 | 16.0 | 0.00 | 0.00 | 0.00 | 43 | 1010.6 |
| 20260503220503 | 62 | 213 | 6.0 | 14.0 | 0.00 | 0.00 | 0.00 | 43 | 1010.6 |
| 20260503220004 | 62 | 214 | 7.0 | 15.0 | 0.00 | 0.00 | 0.00 | 43 | 1010.8 |
| 20260503215504 | 62 | 223 | 8.0 | 15.0 | 0.00 | 0.00 | 0.00 | 43 | 1010.7 |
| 20260503215004 | 62 | 231 | 8.0 | 20.0 | 0.00 | 0.00 | 0.00 | 42 | 1010.9 |
| 20260503214504 | 62 | 228 | 7.0 | 20.0 | 0.00 | 0.00 | 0.00 | 42 | 1011.0 |
| 20260503214003 | 62 | 214 | 8.0 | 22.0 | 0.00 | 0.00 | 0.00 | 41 | 1010.9 |
| 20260503213503 | 62 | 213 | 9.0 | 22.0 | 0.00 | 0.00 | 0.00 | 42 | 1010.9 |
| 20260503213004 | 62 | 223 | 7.0 | 19.0 | 0.00 | 0.00 | 0.00 | 43 | 1010.9 |
| 20260503212503 | 62 | 218 | 6.0 | 17.0 | 0.00 | 0.00 | 0.00 | 42 | 1011.1 |
| 20260503212003 | 62 | 217 | 6.0 | 16.0 | 0.00 | 0.00 | 0.00 | 44 | 1011.2 |
| 20260503211503 | 62 | 225 | 6.0 | 19.0 | 0.00 | 0.00 | 0.00 | 43 | 1011.4 |
| 20260503211004 | 62 | 234 | 9.0 | 19.0 | 0.00 | 0.00 | 0.00 | 42 | 1011.5 |
| 20260503210503 | 62 | 226 | 10.0 | 25.0 | 0.00 | 0.00 | 0.00 | 41 | 1011.6 |
| 20260503210005 | 62 | 225 | 10.0 | 25.0 | 0.00 | 0.00 | 0.00 | 40 | 1011.7 |
| 20260503205503 | 63 | 240 | 10.0 | 23.0 | 0.00 | 0.00 | 0.00 | 41 | 1011.9 |
| 20260503205003 | 63 | 233 | 10.0 | 23.0 | 0.00 | 0.00 | 0.00 | 39 | 1012.0 |
| 20260503204504 | 63 | 221 | 7.0 | 18.0 | 0.00 | 0.00 | 0.00 | 41 | 1011.9 |
| 20260503204003 | 63 | 231 | 7.0 | 18.0 | 0.00 | 0.00 | 0.00 | 41 | 1012.0 |
| 20260503203503 | 63 | 237 | 8.0 | 18.0 | 0.00 | 0.00 | 0.00 | 40 | 1012.3 |
| 20260503203003 | 63 | 219 | 7.0 | 22.0 | 0.00 | 0.00 | 0.00 | 42 | 1012.4 |
| 20260503202505 | 62 | 205 | 7.0 | 22.0 | 0.00 | 0.00 | 0.00 | 41 | 1012.6 |
| 20260503202004 | 62 | 218 | 8.0 | 19.0 | 0.00 | 0.00 | 0.00 | 40 | 1012.7 |
| 20260503201504 | 62 | 227 | 9.0 | 16.0 | 0.00 | 0.00 | 0.00 | 41 | 1012.9 |
| 20260503201003 | 62 | 231 | 9.0 | 19.0 | 0.00 | 0.00 | 0.00 | 42 | 1012.8 |
| 20260503200503 | 62 | 224 | 9.0 | 19.0 | 0.00 | 0.00 | 0.00 | 42 | 1013.0 |
| 20260503200004 | 61 | 218 | 8.0 | 16.0 | 0.00 | 0.00 | 0.00 | 42 | 1012.9 |
| 20260503195505 | 61 | 233 | 8.0 | 20.0 | 0.00 | 0.00 | 0.00 | 42 | 1013.3 |
| 20260503195003 | 61 | 242 | 7.0 | 20.0 | 0.00 | 0.00 | 0.00 | 43 | 1013.5 |
| 20260503194503 | 61 | 224 | 5.0 | 15.0 | 0.00 | 0.00 | 0.00 | 44 | 1013.6 |
| 20260503194004 | 61 | 234 | 7.0 | 20.0 | 0.00 | 0.00 | 0.00 | 43 | 1013.9 |
| 20260503193503 | 61 | 247 | 8.0 | 20.0 | 0.00 | 0.00 | 0.00 | 42 | 1014.2 |
| 20260503193003 | 61 | 249 | 7.0 | 16.0 | 0.00 | 0.00 | 0.00 | 41 | 1014.4 |
| 20260503192504 | 62 | 252 | 8.0 | 19.0 | 0.00 | 0.00 | 0.00 | 42 | 1014.5 |
| 20260503192004 | 62 | 249 | 9.0 | 19.0 | 0.00 | 0.00 | 0.00 | 41 | 1014.5 |
| 20260503191504 | 62 | 235 | 8.0 | 21.0 | 0.00 | 0.00 | 0.00 | 40 | 1014.4 |
| 20260503191003 | 62 | 232 | 9.0 | 21.0 | 0.00 | 0.00 | 0.00 | 40 | 1014.1 |
| 20260503190503 | 63 | 229 | 9.0 | 19.0 | 0.00 | 0.00 | 0.00 | 38 | 1014.2 |
| 20260503190004 | 63 | 226 | 7.0 | 15.0 | 0.00 | 0.00 | 0.00 | 40 | 1014.2 |
| 20260503185503 | 63 | 241 | 7.0 | 19.0 | 0.00 | 0.00 | 0.00 | 41 | 1014.3 |
| 20260503185004 | 63 | 247 | 8.0 | 19.0 | 0.00 | 0.00 | 0.00 | 39 | 1014.2 |
| 20260503184504 | 63 | 231 | 8.0 | 19.0 | 0.00 | 0.00 | 0.00 | 43 | 1014.2 |
| 20260503184005 | 63 | 217 | 6.0 | 19.0 | 0.00 | 0.00 | 0.00 | 41 | 1014.1 |
| 20260503183503 | 62 | 209 | 6.0 | 16.0 | 0.00 | 0.00 | 0.00 | 44 | 1014.4 |
| 20260503183003 | 62 | 207 | 6.0 | 16.0 | 0.00 | 0.00 | 0.00 | 44 | 1014.4 |
| 20260503182504 | 61 | 224 | 5.0 | 14.0 | 0.00 | 0.00 | 0.00 | 44 | 1014.7 |
| 20260503182005 | 61 | 219 | 5.0 | 13.0 | 0.00 | 0.00 | 0.00 | 43 | 1015.1 |
| 20260503181505 | 61 | 231 | 5.0 | 14.0 | 0.00 | 0.00 | 0.00 | 44 | 1015.1 |
| 20260503181005 | 60 | 234 | 7.0 | 16.0 | 0.00 | 0.00 | 0.00 | 43 | 1015.2 |
| 20260503180504 | 60 | 223 | 6.0 | 17.0 | 0.00 | 0.00 | 0.00 | 42 | 1015.5 |
| 20260503180005 | 60 | 231 | 6.0 | 17.0 | 0.00 | 0.00 | 0.00 | 43 | 1015.4 |
| 20260503175503 | 60 | 230 | 7.0 | 14.0 | 0.00 | 0.00 | 0.00 | 41 | 1015.6 |
| 20260503175004 | 60 | 230 | 7.0 | 16.0 | 0.00 | 0.00 | 0.00 | 41 | 1015.6 |
| 20260503174504 | 60 | 237 | 7.0 | 16.0 | 0.00 | 0.00 | 0.00 | 40 | 1015.7 |
| 20260503174003 | 61 | 249 | 7.0 | 16.0 | 0.00 | 0.00 | 0.00 | 42 | 1015.7 |
| 20260503173503 | 61 | 245 | 8.0 | 16.0 | 0.00 | 0.00 | 0.00 | 41 | 1015.9 |
| 20260503173003 | 61 | 229 | 9.0 | 16.0 | 0.00 | 0.00 | 0.00 | 39 | 1016.0 |
| 20260503172505 | 61 | 225 | 8.0 | 17.0 | 0.00 | 0.00 | 0.00 | 38 | 1016.1 |
| 20260503172004 | 62 | 243 | 8.0 | 20.0 | 0.00 | 0.00 | 0.00 | 37 | 1016.2 |
| 20260503171504 | 62 | 245 | 9.0 | 20.0 | 0.00 | 0.00 | 0.00 | 36 | 1016.2 |
| 20260503171003 | 62 | 249 | 9.0 | 21.0 | 0.00 | 0.00 | 0.00 | 40 | 1016.3 |
| 20260503170503 | 63 | 254 | 7.0 | 21.0 | 0.00 | 0.00 | 0.00 | 38 | 1016.4 |
| 20260503151003 | 59 | 251 | 9.0 | 18.0 | 0.00 | 0.00 | 0.00 | 45 | 1017.5 |
| 20260503150506 | 58 | 245 | 10.0 | 18.0 | 0.00 | 0.00 | 0.00 | 40 | 1017.5 |
| 20260503131003 | 36 | 244 | 3.0 | 10.0 | 0.00 | 0.00 | 0.00 | 81 | 1017.9 |
| 20260503130503 | 36 | 246 | 4.0 | 11.0 | 0.00 | 0.00 | 0.00 | 81 | 1018.0 |
| 20260503110504 | 36 | 322 | 1.0 | 3.0 | 0.00 | 0.00 | 0.00 | 81 | 1017.6 |
| 20260503090504 | 36 | 322 | 1.0 | 3.0 | 0.00 | 0.00 | 0.00 | 80 | 1017.2 |
| 20260503081503 | 36 | 322 | 1.0 | 3.0 | 0.00 | 0.00 | 0.00 | 80 | 1017.3 |
| 20260503081003 | 37 | 322 | 1.0 | 3.0 | 0.00 | 0.00 | 0.00 | 80 | 1017.2 |
| 20260503080503 | 37 | 322 | 1.0 | 3.0 | 0.00 | 0.00 | 0.00 | 80 | 1017.3 |
| 20260503072503 | 37 | 322 | 1.0 | 3.0 | 0.00 | 0.00 | 0.00 | 80 | 1017.2 |
| 20260503072003 | 37 | 322 | 1.0 | 3.0 | 0.00 | 0.00 | 0.00 | 79 | 1017.3 |
| 20260503071504 | 37 | 322 | 1.0 | 3.0 | 0.00 | 0.00 | 0.00 | 79 | 1017.3 |
| 20260503071004 | 37 | 322 | 1.0 | 3.0 | 0.00 | 0.00 | 0.00 | 79 | 1017.3 |
| 20260503070504 | 37 | 322 | 1.0 | 3.0 | 0.00 | 0.00 | 0.00 | 79 | 1017.3 |
| 20260503055003 | 38 | 321 | 0.0 | 2.0 | 0.00 | 0.00 | 0.00 | 78 | 1017.7 |
| 20260503054503 | 38 | 321 | 1.0 | 3.0 | 0.00 | 0.00 | 0.00 | 78 | 1017.7 |
| 20260503054004 | 38 | 321 | 0.0 | 3.0 | 0.00 | 0.00 | 0.00 | 78 | 1017.8 |
| 20260503053503 | 38 | 321 | 0.0 | 2.0 | 0.00 | 0.00 | 0.00 | 78 | 1017.7 |
| 20260503053003 | 38 | 321 | 0.0 | 2.0 | 0.00 | 0.00 | 0.00 | 78 | 1017.8 |
| 20260503052504 | 38 | 322 | 1.0 | 3.0 | 0.00 | 0.00 | 0.00 | 78 | 1017.8 |
| 20260503052003 | 38 | 322 | 2.0 | 3.0 | 0.00 | 0.00 | 0.00 | 78 | 1017.9 |
| 20260503051504 | 39 | 322 | 1.0 | 3.0 | 0.00 | 0.00 | 0.00 | 78 | 1017.8 |
| 20260503051003 | 39 | 322 | 1.0 | 2.0 | 0.00 | 0.00 | 0.00 | 77 | 1017.9 |
| 20260503050503 | 39 | 322 | 1.0 | 2.0 | 0.00 | 0.00 | 0.00 | 77 | 1017.9 |
| 20260503050004 | 39 | 322 | 1.0 | 2.0 | 0.00 | 0.00 | 0.00 | 77 | 1017.9 |
| 20260503045505 | 39 | 322 | 1.0 | 3.0 | 0.00 | 0.00 | 0.00 | 77 | 1017.9 |
| 20260503045004 | 39 | 322 | 1.0 | 3.0 | 0.00 | 0.00 | 0.00 | 76 | 1017.9 |
| 20260503044503 | 39 | 322 | 2.0 | 3.0 | 0.00 | 0.00 | 0.00 | 76 | 1017.9 |
| 20260503044004 | 39 | 322 | 1.0 | 3.0 | 0.00 | 0.00 | 0.00 | 76 | 1017.9 |
| 20260503043503 | 39 | 322 | 1.0 | 2.0 | 0.00 | 0.00 | 0.00 | 75 | 1017.9 |
| 20260503043003 | 39 | 322 | 1.0 | 2.0 | 0.00 | 0.00 | 0.00 | 75 | 1017.9 |
| 20260503042503 | 39 | 322 | 1.0 | 3.0 | 0.00 | 0.00 | 0.00 | 74 | 1017.9 |
| 20260503042003 | 39 | 321 | 1.0 | 3.0 | 0.00 | 0.00 | 0.00 | 74 | 1017.9 |
| 20260503041503 | 39 | 322 | 1.0 | 2.0 | 0.00 | 0.00 | 0.00 | 74 | 1017.8 |
| 20260503041004 | 40 | 322 | 1.0 | 2.0 | 0.00 | 0.00 | 0.00 | 73 | 1017.8 |
| 20260503040503 | 40 | 321 | 0.0 | 2.0 | 0.00 | 0.00 | 0.00 | 73 | 1017.9 |
| 20260503040004 | 40 | 321 | 0.0 | 2.0 | 0.00 | 0.00 | 0.00 | 72 | 1017.9 |
| 20260503035503 | 40 | 321 | 0.0 | 2.0 | 0.00 | 0.00 | 0.00 | 72 | 1017.9 |